Location: Derby
(52.9213°N, 1.4761°W)
Time: 17:40:55
(UTC+01:00)

Tiros 1 - Pass Details

Date: 26 May 2025
Orbit: 620 x 651 km, 48.4° (Epoch: 13 June)

Event Time Altitude Azimuth Distance (km) Brightness Sun altitude
Rises 17:23:40 0° 240° (WSW) 2,887 11.4 31.7°
Reaches altitude 10° 17:26:04 10° 233° (SW) 1,984 10.7 31.3°
Maximum altitude 17:30:18 39° 165° (SSE) 933 8.2 30.7°
Drops below altitude 10° 17:34:35 10° 96° (E) 1,999 9.2 30.0°
Sets 17:37:00 0° 89° (E) 2,911 10.0 29.7°
